This is the latest recevied weather packets stored in our database for station/object AG7BI. If no packets are shown the sender has not sent any weather packets the latest 10 day(s).
| Time | Temp. | Humidity | Pressure | Rain* | Wind** | Luminosity | Snow |
|---|---|---|---|---|---|---|---|
| 1777574452 | 16.11° C | 65% | 1020.6 hPa | 0 mm | - | - | - |
| 1777574152 | 16.11° C | 69% | 1020.6 hPa | 0 mm | - | - | - |
| 1777573852 | 15.56° C | 66% | 1020.7 hPa | 0 mm | - | - | - |
| 1777573552 | 15.56° C | 66% | 1020.8 hPa | 0 mm | - | - | - |
| 1777573252 | 15.56° C | 63% | 1020.9 hPa | 0 mm | - | - | - |
| 1777572952 | 15.56° C | 67% | 1020.8 hPa | 0 mm | - | - | - |
| 1777572652 | 15.56° C | 65% | 1020.8 hPa | 0 mm | - | - | - |
| 1777572352 | 15° C | 64% | 1020.9 hPa | 0 mm | - | - | - |
| 1777572052 | 15° C | 67% | 1020.9 hPa | 0 mm | - | - | - |
| 1777571752 | 15° C | 61% | 1021.1 hPa | 0 mm | - | - | - |
| 1777571452 | 15° C | 61% | 1020.8 hPa | 0 mm | - | - | - |
| 1777571152 | 15° C | 63% | 1021 hPa | 0 mm | - | - | - |
| 1777570852 | 14.44° C | 69% | 1021.1 hPa | 0 mm | - | - | - |
| 1777570552 | 14.44° C | 69% | 1021.1 hPa | 0 mm | - | - | - |
| 1777570252 | 13.89° C | 70% | 1021.5 hPa | 0 mm | - | - | - |
| 1777569952 | 13.89° C | 69% | 1021.4 hPa | 0 mm | - | - | - |
| 1777569652 | 14.44° C | 67% | 1021.5 hPa | 0 mm | - | - | - |
| 1777569352 | 14.44° C | 72% | 1021.3 hPa | 0 mm | - | - | - |
| 1777569052 | 13.89° C | 70% | 1021.6 hPa | 0 mm | - | - | - |
| 1777568752 | 13.33° C | 75% | 1021.4 hPa | 0 mm | - | - | - |
| 1777568452 | 13.89° C | 75% | 1021.8 hPa | 0 mm | - | - | - |
| 1777568152 | 13.33° C | 71% | 1021.7 hPa | 0 mm | - | - | - |
| 1777567852 | 13.33° C | 71% | 1021.7 hPa | 0 mm | - | - | - |
| 1777567552 | 12.78° C | 75% | 1021.6 hPa | 0 mm | - | - | - |
| 1777567252 | 12.78° C | 73% | 1021.7 hPa | 0 mm | - | - | - |
* Rain latest hour (hover to see other rain measurements)
** Current wind speed in m/s (hover to see current wind gust speed)